GFSSW_prec_precacc_087.txt.gz
Total_Precipitation_Accumulation
0.01 0.01 0.01 0.01 0.00 0.00 0.00 0.00 0.00 0.00 0.00 0.00 0.00 0.00 0.00 0.00 0.00 0.00 0.00 0.00 0.00 0.00 0.00 0.00 0.00 0.00 0.00 0.00 0.00 0.00 0.00 0.00 0.01 0.02 0.18 0.25 0.17 0.26 0.11 0.01 0.04 0.21 1.07 0.42 0.22
0.02 0.02 0.02 0.01 0.01 0.00 0.00 0.00 0.00 0.00 0.00 0.00 0.00 0.00 0.00 0.00 0.00 0.00 0.00 0.00 0.00 0.00 0.00 0.00 0.00 0.00 0.00 0.00 0.00 0.00 0.00 0.00 0.03 0.08 0.25 0.33 0.04 0.18 0.07 0.03 0.19 0.63 1.02 0.34 0.21
0.01 0.01 0.01 0.01 0.00 0.00 0.00 0.00 0.00 0.00 0.00 0.00 0.00 0.00 0.00 0.00 0.00 0.00 0.00 0.00 0.00 0.00 0.00 0.00 0.00 0.00 0.00 0.00 0.00 0.00 0.00 0.00 0.00 0.06 0.10 0.29 0.01 0.05 0.03 0.06 0.42 0.46 0.60 0.36 0.34
0.00 0.00 0.01 0.01 0.00 0.00 0.00 0.00 0.00 0.00 0.00 0.00 0.00 0.00 0.00 0.00 0.00 0.00 0.00 0.00 0.00 0.00 0.00 0.00 0.00 0.00 0.00 0.00 0.00 0.00 0.00 0.00 0.00 0.00 0.00 0.00 0.07 0.15 0.09 0.10 0.21 0.45 0.47 0.33 0.41
0.00 0.00 0.00 0.00 0.00 0.00 0.00 0.00 0.00 0.00 0.00 0.00 0.00 0.00 0.00 0.00 0.00 0.00 0.00 0.00 0.00 0.00 0.00 0.00 0.00 0.00 0.00 0.00 0.00 0.00 0.00 0.00 0.00 0.01 0.00 0.01 0.09 0.11 0.01 0.05 0.22 0.39 0.26 0.25 0.29
0.00 0.00 0.00 0.00 0.00 0.00 0.00 0.00 0.00 0.00 0.00 0.00 0.00 0.00 0.00 0.00 0.00 0.00 0.00 0.00 0.00 0.00 0.00 0.00 0.00 0.00 0.00 0.00 0.00 0.00 0.00 0.00 0.00 0.00 0.00 0.00 0.18 0.02 0.11 0.13 0.30 0.94 0.29 0.16 0.19
0.01 0.00 0.00 0.01 0.01 0.01 0.01 0.00 0.00 0.00 0.00 0.00 0.00 0.00 0.00 0.00 0.00 0.00 0.00 0.00 0.00 0.00 0.00 0.00 0.00 0.00 0.00 0.00 0.00 0.00 0.00 0.00 0.04 0.02 0.00 0.02 0.06 0.02 0.16 0.27 0.40 0.34 0.16 0.04 0.04
0.01 0.01 0.00 0.00 0.01 0.00 0.00 0.00 0.00 0.00 0.00 0.00 0.00 0.00 0.00 0.00 0.00 0.00 0.00 0.00 0.00 0.00 0.00 0.00 0.00 0.00 0.00 0.00 0.00 0.00 0.00 0.00 0.05 0.01 0.00 0.01 0.13 0.25 0.31 0.13 0.33 0.47 0.10 0.03 0.00
0.00 0.00 0.00 0.00 0.00 0.01 0.00 0.00 0.00 0.00 0.00 0.00 0.00 0.00 0.00 0.00 0.00 0.00 0.00 0.00 0.00 0.00 0.00 0.00 0.00 0.00 0.00 0.01 0.00 0.00 0.00 0.00 0.00 0.00 0.00 0.00 0.00 0.03 0.15 0.27 0.39 0.29 0.04 0.00 0.00
0.00 0.00 0.00 0.00 0.01 0.01 0.00 0.00 0.00 0.00 0.00 0.00 0.01 0.01 0.00 0.00 0.00 0.00 0.00 0.01 0.01 0.00 0.00 0.00 0.00 0.00 0.00 0.00 0.00 0.00 0.00 0.00 0.00 0.00 0.00 0.00 0.00 0.00 0.02 0.06 0.06 0.05 0.02 0.01 0.00
0.01 0.00 0.00 0.01 0.01 0.02 0.00 0.00 0.00 0.00 0.00 0.00 0.00 0.00 0.00 0.00 0.00 0.00 0.00 0.00 0.00 0.00 0.02 0.00 0.00 0.00 0.00 0.00 0.00 0.00 0.00 0.00 0.00 0.00 0.00 0.00 0.00 0.00 0.00 0.01 0.03 0.04 0.03 0.01 0.00
0.01 0.01 0.01 0.01 0.03 0.02 0.00 0.00 0.00 0.00 0.00 0.00 0.00 0.00 0.00 0.00 0.00 0.00 0.00 0.00 0.00 0.00 0.01 0.00 0.00 0.00 0.00 0.00 0.00 0.00 0.00 0.00 0.00 0.00 0.00 0.00 0.00 0.00 0.00 0.00 0.00 0.01 0.01 0.00 0.00
0.01 0.01 0.01 0.02 0.04 0.01 0.01 0.00 0.00 0.00 0.00 0.00 0.00 0.00 0.00 0.00 0.00 0.00 0.00 0.00 0.00 0.00 0.00 0.01 0.01 0.00 0.00 0.00 0.00 0.00 0.00 0.00 0.00 0.00 0.00 0.00 0.00 0.00 0.00 0.01 0.01 0.01 0.00 0.00 0.00
0.01 0.01 0.01 0.04 0.02 0.00 0.00 0.00 0.00 0.00 0.00 0.00 0.00 0.00 0.00 0.00 0.00 0.00 0.00 0.00 0.00 0.00 0.00 0.02 0.00 0.00 0.00 0.00 0.00 0.01 0.00 0.00 0.00 0.00 0.02 0.00 0.00 0.01 0.00 0.00 0.00 0.01 0.01 0.01 0.00
0.02 0.00 0.02 0.05 0.01 0.00 0.00 0.00 0.00 0.01 0.01 0.00 0.00 0.00 0.00 0.00 0.00 0.00 0.00 0.00 0.00 0.00 0.00 0.01 0.00 0.00 0.00 0.00 0.00 0.01 0.00 0.00 0.00 0.00 0.01 0.02 0.00 0.02 0.00 0.00 0.00 0.00 0.00 0.00 0.00
0.03 0.02 0.05 0.05 0.02 0.00 0.01 0.02 0.09 0.06 0.02 0.00 0.00 0.00 0.00 0.00 0.00 0.00 0.00 0.00 0.00 0.00 0.00 0.01 0.01 0.01 0.01 0.00 0.00 0.00 0.00 0.00 0.00 0.00 0.00 0.01 0.02 0.01 0.01 0.01 0.03 0.02 0.00 0.00 0.00
0.04 0.04 0.09 0.03 0.01 0.01 0.02 0.11 0.17 0.05 0.00 0.00 0.00 0.00 0.00 0.00 0.00 0.00 0.00 0.00 0.00 0.00 0.00 0.00 0.00 0.01 0.01 0.00 0.00 0.00 0.00 0.01 0.10 0.04 0.02 0.05 0.05 0.03 0.00 0.00 0.01 0.01 0.00 0.00 0.01
0.08 0.11 0.11 0.04 0.00 0.02 0.10 0.26 0.11 0.00 0.00 0.00 0.00 0.00 0.00 0.00 0.00 0.00 0.00 0.00 0.00 0.00 0.00 0.00 0.00 0.00 0.00 0.00 0.02 0.01 0.00 0.04 0.08 0.04 0.05 0.05 0.01 0.00 0.00 0.00 0.00 0.00 0.00 0.00 0.00
0.26 0.19 0.15 0.03 0.02 0.06 0.29 0.27 0.03 0.00 0.00 0.00 0.00 0.00 0.00 0.00 0.00 0.00 0.00 0.00 0.00 0.00 0.00 0.00 0.01 0.01 0.00 0.00 0.00 0.01 0.02 0.00 0.00 0.01 0.01 0.00 0.00 0.00 0.00 0.00 0.00 0.00 0.00 0.00 0.00
0.33 0.29 0.09 0.02 0.08 0.29 0.50 0.15 0.00 0.00 0.00 0.00 0.00 0.00 0.00 0.00 0.00 0.00 0.00 0.00 0.00 0.00 0.00 0.02 0.06 0.03 0.00 0.00 0.00 0.00 0.00 0.00 0.00 0.00 0.02 0.00 0.00 0.01 0.01 0.00 0.00 0.00 0.00 0.00 0.00
0.61 0.64 0.12 0.05 0.48 0.62 0.34 0.04 0.00 0.00 0.00 0.00 0.00 0.00 0.00 0.00 0.01 0.03 0.00 0.00 0.00 0.00 0.00 0.00 0.03 0.08 0.00 0.00 0.00 0.00 0.00 0.00 0.00 0.00 0.04 0.08 0.01 0.00 0.00 0.00 0.00 0.00 0.00 0.00 0.00
1.23 0.92 0.24 0.18 0.59 0.36 0.08 0.00 0.00 0.00 0.00 0.00 0.00 0.00 0.00 0.00 0.00 0.02 0.01 0.00 0.00 0.00 0.00 0.00 0.00 0.01 0.01 0.01 0.01 0.00 0.00 0.01 0.01 0.02 0.01 0.03 0.01 0.00 0.00 0.00 0.00 0.01 0.00 0.00 0.00
1.59 0.88 0.84 0.32 0.27 0.12 0.04 0.02 0.00 0.00 0.00 0.00 0.00 0.00 0.00 0.00 0.02 0.01 0.03 0.00 0.00 0.00 0.00 0.00 0.01 0.02 0.00 0.02 0.01 0.00 0.00 0.00 0.00 0.00 0.00 0.03 0.01 0.00 0.00 0.00 0.00 0.00 0.00 0.00 0.00
1.80 1.21 1.54 1.06 0.10 0.01 0.04 0.06 0.04 0.00 0.00 0.00 0.00 0.00 0.02 0.02 0.03 0.06 0.03 0.05 0.00 0.00 0.00 0.05 0.05 0.02 0.02 0.00 0.00 0.00 0.00 0.00 0.00 0.00 0.00 0.00 0.00 0.00 0.00 0.00 0.00 0.00 0.00 0.00 0.00
2.41 0.71 0.45 0.60 0.39 0.08 0.02 0.02 0.02 0.02 0.00 0.00 0.00 0.02 0.03 0.04 0.03 0.03 0.10 0.09 0.07 0.02 0.01 0.10 0.11 0.00 0.00 0.00 0.00 0.00 0.00 0.00 0.00 0.00 0.00 0.00 0.00 0.00 0.00 0.00 0.00 0.00 0.00 0.00 0.00
2.16 0.30 0.14 0.08 0.05 0.12 0.09 0.03 0.01 0.00 0.00 0.00 0.00 0.00 0.02 0.05 0.03 0.03 0.08 0.27 0.21 0.22 0.16 0.14 0.11 0.01 0.00 0.00 0.00 0.01 0.00 0.00 0.00 0.00 0.00 0.00 0.00 0.00 0.00 0.00 0.00 0.00 0.00 0.00 0.00
1.61 0.20 0.24 0.14 0.09 0.14 0.10 0.03 0.01 0.00 0.00 0.00 0.00 0.00 0.02 0.04 0.06 0.11 0.09 0.14 0.27 0.43 0.41 0.26 0.18 0.09 0.04 0.00 0.01 0.06 0.00 0.00 0.00 0.00 0.00 0.00 0.00 0.00 0.00 0.00 0.00 0.00 0.00 0.00 0.00

GFSSW_prec_precacc_090.txt.gz
Total_Precipitation_Accumulation
0.02 0.01 0.01 0.01 0.00 0.00 0.00 0.00 0.00 0.00 0.00 0.00 0.00 0.00 0.00 0.00 0.00 0.00 0.00 0.00 0.00 0.00 0.00 0.00 0.00 0.00 0.00 0.00 0.00 0.00 0.00 0.00 0.01 0.02 0.18 0.25 0.17 0.26 0.11 0.01 0.04 0.21 1.07 0.42 0.22
0.02 0.02 0.02 0.01 0.01 0.00 0.00 0.00 0.00 0.00 0.00 0.00 0.00 0.00 0.00 0.00 0.00 0.00 0.00 0.00 0.00 0.00 0.00 0.00 0.00 0.00 0.00 0.00 0.00 0.00 0.00 0.00 0.03 0.08 0.25 0.33 0.04 0.18 0.07 0.03 0.19 0.63 1.02 0.34 0.21
0.01 0.01 0.01 0.01 0.00 0.00 0.00 0.00 0.00 0.00 0.00 0.00 0.00 0.00 0.00 0.00 0.00 0.00 0.00 0.00 0.00 0.00 0.00 0.00 0.00 0.00 0.00 0.00 0.00 0.00 0.00 0.00 0.00 0.06 0.10 0.29 0.01 0.05 0.03 0.06 0.42 0.46 0.60 0.36 0.34
0.00 0.00 0.01 0.01 0.00 0.00 0.00 0.00 0.00 0.00 0.00 0.00 0.00 0.00 0.00 0.00 0.00 0.00 0.00 0.00 0.00 0.00 0.00 0.00 0.00 0.00 0.00 0.00 0.00 0.00 0.00 0.00 0.00 0.00 0.00 0.00 0.07 0.15 0.09 0.10 0.21 0.45 0.47 0.33 0.41
0.00 0.00 0.00 0.00 0.00 0.00 0.00 0.00 0.00 0.00 0.00 0.00 0.00 0.00 0.00 0.00 0.00 0.00 0.00 0.00 0.00 0.00 0.00 0.00 0.00 0.00 0.00 0.00 0.00 0.00 0.00 0.00 0.00 0.01 0.00 0.01 0.09 0.11 0.01 0.05 0.22 0.39 0.26 0.25 0.29
0.00 0.00 0.00 0.00 0.00 0.00 0.00 0.00 0.00 0.00 0.00 0.00 0.00 0.00 0.00 0.00 0.00 0.00 0.00 0.00 0.00 0.00 0.00 0.00 0.00 0.00 0.00 0.00 0.00 0.00 0.00 0.00 0.00 0.00 0.00 0.00 0.18 0.02 0.11 0.13 0.30 0.94 0.29 0.16 0.19
0.01 0.00 0.00 0.01 0.01 0.01 0.01 0.00 0.00 0.00 0.00 0.00 0.00 0.00 0.00 0.00 0.00 0.00 0.00 0.00 0.00 0.00 0.00 0.00 0.00 0.00 0.00 0.00 0.00 0.00 0.00 0.00 0.04 0.02 0.00 0.02 0.06 0.02 0.16 0.27 0.40 0.34 0.16 0.04 0.04
0.01 0.01 0.00 0.00 0.01 0.00 0.00 0.00 0.00 0.00 0.00 0.00 0.00 0.00 0.00 0.00 0.00 0.00 0.00 0.00 0.00 0.00 0.00 0.00 0.00 0.00 0.00 0.00 0.00 0.00 0.00 0.00 0.05 0.01 0.00 0.01 0.13 0.25 0.31 0.13 0.33 0.47 0.10 0.03 0.00
0.00 0.00 0.00 0.00 0.00 0.01 0.00 0.00 0.00 0.00 0.00 0.00 0.00 0.00 0.00 0.00 0.00 0.00 0.00 0.00 0.00 0.00 0.00 0.00 0.00 0.00 0.00 0.01 0.00 0.00 0.00 0.00 0.00 0.00 0.00 0.00 0.00 0.03 0.15 0.27 0.39 0.29 0.04 0.00 0.00
0.01 0.00 0.00 0.00 0.01 0.01 0.00 0.00 0.00 0.00 0.00 0.00 0.01 0.01 0.00 0.00 0.00 0.00 0.00 0.01 0.01 0.00 0.00 0.00 0.00 0.00 0.00 0.00 0.00 0.00 0.00 0.00 0.00 0.00 0.00 0.00 0.00 0.00 0.02 0.06 0.06 0.05 0.02 0.01 0.00
0.01 0.01 0.00 0.01 0.01 0.02 0.00 0.00 0.00 0.00 0.00 0.00 0.00 0.00 0.00 0.00 0.00 0.00 0.00 0.00 0.00 0.00 0.02 0.00 0.00 0.00 0.00 0.00 0.00 0.00 0.00 0.00 0.00 0.00 0.00 0.00 0.00 0.00 0.00 0.01 0.03 0.04 0.03 0.01 0.00
0.01 0.01 0.01 0.01 0.03 0.02 0.00 0.00 0.00 0.00 0.00 0.00 0.00 0.00 0.00 0.00 0.00 0.00 0.00 0.00 0.00 0.00 0.01 0.00 0.00 0.00 0.00 0.00 0.00 0.00 0.00 0.00 0.00 0.00 0.00 0.00 0.00 0.00 0.00 0.00 0.00 0.01 0.01 0.00 0.00
0.02 0.01 0.01 0.02 0.04 0.01 0.01 0.00 0.00 0.00 0.00 0.00 0.00 0.00 0.00 0.00 0.00 0.00 0.00 0.00 0.00 0.00 0.00 0.01 0.01 0.00 0.00 0.00 0.00 0.00 0.00 0.00 0.00 0.00 0.00 0.00 0.00 0.00 0.00 0.01 0.01 0.01 0.00 0.00 0.00
0.02 0.01 0.01 0.04 0.02 0.00 0.00 0.00 0.00 0.00 0.00 0.00 0.00 0.00 0.00 0.00 0.00 0.00 0.00 0.00 0.00 0.00 0.00 0.02 0.00 0.00 0.00 0.00 0.00 0.01 0.00 0.00 0.00 0.00 0.02 0.00 0.00 0.01 0.00 0.00 0.00 0.01 0.01 0.01 0.00
0.02 0.01 0.02 0.05 0.01 0.00 0.00 0.00 0.00 0.01 0.01 0.00 0.00 0.00 0.00 0.00 0.00 0.00 0.00 0.00 0.00 0.00 0.00 0.01 0.00 0.00 0.00 0.00 0.00 0.01 0.00 0.00 0.00 0.00 0.01 0.02 0.00 0.02 0.00 0.00 0.00 0.00 0.00 0.00 0.00
0.03 0.02 0.05 0.05 0.02 0.00 0.01 0.02 0.09 0.07 0.02 0.00 0.00 0.00 0.00 0.00 0.00 0.00 0.00 0.00 0.00 0.00 0.00 0.01 0.01 0.01 0.01 0.00 0.00 0.00 0.00 0.00 0.00 0.00 0.00 0.01 0.02 0.01 0.01 0.01 0.03 0.02 0.00 0.00 0.00
0.05 0.04 0.09 0.04 0.01 0.01 0.02 0.11 0.17 0.05 0.00 0.00 0.00 0.00 0.00 0.00 0.00 0.00 0.00 0.00 0.00 0.00 0.00 0.00 0.00 0.01 0.01 0.00 0.00 0.00 0.00 0.01 0.10 0.04 0.02 0.05 0.05 0.03 0.00 0.00 0.01 0.01 0.00 0.00 0.01
0.09 0.12 0.11 0.04 0.00 0.02 0.10 0.26 0.11 0.00 0.00 0.00 0.00 0.00 0.00 0.00 0.00 0.00 0.00 0.00 0.00 0.00 0.00 0.00 0.00 0.00 0.00 0.00 0.02 0.01 0.00 0.04 0.08 0.04 0.05 0.05 0.01 0.00 0.00 0.00 0.00 0.00 0.00 0.00 0.00
0.26 0.19 0.15 0.03 0.02 0.06 0.29 0.27 0.03 0.00 0.00 0.00 0.00 0.00 0.00 0.00 0.00 0.00 0.00 0.00 0.00 0.00 0.00 0.00 0.01 0.01 0.00 0.00 0.00 0.01 0.02 0.00 0.00 0.01 0.01 0.00 0.00 0.00 0.00 0.00 0.00 0.00 0.00 0.00 0.00
0.34 0.29 0.09 0.02 0.09 0.31 0.50 0.15 0.00 0.00 0.00 0.00 0.00 0.00 0.00 0.00 0.00 0.00 0.00 0.00 0.00 0.00 0.00 0.02 0.06 0.03 0.00 0.00 0.00 0.00 0.00 0.00 0.00 0.00 0.02 0.00 0.00 0.01 0.01 0.00 0.00 0.00 0.00 0.00 0.00
0.63 0.66 0.12 0.05 0.52 0.66 0.35 0.04 0.00 0.00 0.00 0.00 0.00 0.00 0.00 0.00 0.01 0.03 0.00 0.00 0.00 0.00 0.00 0.00 0.03 0.08 0.00 0.00 0.00 0.00 0.00 0.00 0.00 0.00 0.04 0.08 0.01 0.00 0.00 0.00 0.00 0.00 0.00 0.00 0.00
1.27 0.94 0.24 0.21 0.61 0.37 0.09 0.00 0.00 0.00 0.00 0.00 0.00 0.00 0.00 0.00 0.00 0.02 0.01 0.00 0.00 0.00 0.00 0.00 0.00 0.01 0.01 0.01 0.01 0.00 0.00 0.01 0.01 0.02 0.01 0.03 0.01 0.00 0.00 0.00 0.00 0.01 0.00 0.00 0.00
1.63 0.89 0.86 0.40 0.30 0.13 0.05 0.03 0.00 0.00 0.00 0.00 0.00 0.00 0.00 0.00 0.02 0.01 0.03 0.00 0.00 0.00 0.00 0.00 0.01 0.02 0.00 0.02 0.01 0.00 0.00 0.00 0.00 0.00 0.00 0.03 0.01 0.00 0.00 0.00 0.00 0.00 0.00 0.00 0.00
1.85 1.24 1.56 1.13 0.14 0.04 0.04 0.07 0.04 0.00 0.00 0.00 0.00 0.00 0.02 0.02 0.03 0.06 0.03 0.05 0.00 0.00 0.00 0.05 0.05 0.02 0.02 0.00 0.00 0.00 0.00 0.00 0.00 0.00 0.00 0.00 0.00 0.00 0.00 0.00 0.00 0.00 0.00 0.00 0.00
2.53 0.73 0.47 0.61 0.41 0.12 0.04 0.03 0.03 0.02 0.01 0.00 0.00 0.02 0.03 0.04 0.03 0.03 0.10 0.09 0.07 0.02 0.01 0.10 0.12 0.01 0.00 0.00 0.00 0.00 0.00 0.00 0.00 0.00 0.00 0.00 0.00 0.00 0.00 0.00 0.00 0.00 0.00 0.00 0.00
2.22 0.33 0.17 0.10 0.07 0.14 0.16 0.08 0.01 0.01 0.01 0.00 0.00 0.00 0.02 0.05 0.03 0.03 0.08 0.27 0.21 0.22 0.16 0.15 0.12 0.02 0.00 0.00 0.00 0.01 0.00 0.00 0.00 0.00 0.00 0.00 0.00 0.00 0.00 0.00 0.00 0.00 0.00 0.00 0.00
1.68 0.23 0.27 0.15 0.11 0.23 0.16 0.05 0.02 0.01 0.01 0.00 0.00 0.00 0.02 0.05 0.06 0.11 0.09 0.14 0.27 0.43 0.41 0.26 0.18 0.10 0.04 0.00 0.01 0.06 0.00 0.00 0.00 0.00 0.00 0.00 0.00 0.00 0.00 0.00 0.00 0.00 0.00 0.00 0.00

GFSSW_prec_precacc_093.txt.gz
Total_Precipitation_Accumulation
0.02 0.01 0.01 0.01 0.00 0.00 0.00 0.00 0.00 0.00 0.00 0.00 0.00 0.00 0.00 0.00 0.00 0.00 0.00 0.00 0.00 0.00 0.00 0.00 0.00 0.00 0.00 0.00 0.00 0.00 0.00 0.00 0.01 0.02 0.18 0.25 0.17 0.26 0.11 0.01 0.04 0.21 1.07 0.42 0.22
0.02 0.02 0.02 0.01 0.01 0.00 0.00 0.00 0.00 0.00 0.00 0.00 0.00 0.00 0.00 0.00 0.00 0.00 0.00 0.00 0.00 0.00 0.00 0.00 0.00 0.00 0.00 0.00 0.00 0.00 0.00 0.00 0.03 0.08 0.25 0.33 0.04 0.18 0.07 0.03 0.19 0.63 1.02 0.34 0.21
0.01 0.02 0.01 0.01 0.00 0.00 0.00 0.00 0.00 0.00 0.00 0.00 0.00 0.00 0.00 0.00 0.00 0.00 0.00 0.00 0.00 0.00 0.00 0.00 0.00 0.00 0.00 0.00 0.00 0.00 0.00 0.00 0.00 0.06 0.10 0.29 0.01 0.05 0.03 0.06 0.42 0.46 0.60 0.36 0.34
0.00 0.00 0.01 0.01 0.00 0.00 0.00 0.00 0.00 0.00 0.00 0.00 0.00 0.00 0.00 0.00 0.00 0.00 0.00 0.00 0.00 0.00 0.00 0.00 0.00 0.00 0.00 0.00 0.00 0.00 0.00 0.00 0.00 0.00 0.00 0.00 0.07 0.15 0.09 0.10 0.21 0.45 0.47 0.33 0.41
0.00 0.00 0.00 0.00 0.00 0.00 0.00 0.00 0.00 0.00 0.00 0.00 0.00 0.00 0.00 0.00 0.00 0.00 0.00 0.00 0.00 0.00 0.00 0.00 0.00 0.00 0.00 0.00 0.00 0.00 0.00 0.00 0.00 0.01 0.00 0.01 0.09 0.11 0.01 0.05 0.22 0.39 0.26 0.25 0.29
0.00 0.00 0.00 0.00 0.00 0.00 0.00 0.00 0.00 0.00 0.00 0.00 0.00 0.00 0.00 0.00 0.00 0.00 0.00 0.00 0.00 0.00 0.00 0.00 0.00 0.00 0.00 0.00 0.00 0.00 0.00 0.00 0.00 0.00 0.00 0.00 0.18 0.02 0.11 0.13 0.30 0.94 0.29 0.16 0.19
0.01 0.00 0.00 0.01 0.01 0.01 0.01 0.00 0.00 0.00 0.00 0.00 0.00 0.00 0.00 0.00 0.00 0.00 0.00 0.00 0.00 0.00 0.00 0.00 0.00 0.00 0.00 0.00 0.00 0.00 0.00 0.00 0.04 0.02 0.00 0.02 0.06 0.02 0.16 0.27 0.40 0.34 0.16 0.04 0.04
0.01 0.01 0.00 0.00 0.01 0.00 0.00 0.00 0.00 0.00 0.00 0.00 0.00 0.00 0.00 0.00 0.00 0.00 0.00 0.00 0.00 0.00 0.00 0.00 0.00 0.00 0.00 0.00 0.00 0.00 0.00 0.00 0.05 0.01 0.00 0.01 0.13 0.25 0.31 0.13 0.33 0.47 0.10 0.03 0.00
0.00 0.00 0.00 0.00 0.00 0.01 0.00 0.00 0.00 0.00 0.00 0.00 0.00 0.00 0.00 0.00 0.00 0.00 0.00 0.00 0.00 0.00 0.00 0.00 0.00 0.00 0.00 0.01 0.00 0.00 0.00 0.00 0.00 0.00 0.00 0.00 0.00 0.03 0.15 0.27 0.39 0.29 0.04 0.00 0.00
0.01 0.00 0.00 0.00 0.01 0.01 0.00 0.00 0.00 0.00 0.00 0.00 0.01 0.01 0.00 0.00 0.00 0.00 0.00 0.01 0.01 0.00 0.00 0.00 0.00 0.00 0.00 0.00 0.00 0.00 0.00 0.00 0.00 0.00 0.00 0.00 0.00 0.00 0.02 0.06 0.06 0.05 0.02 0.01 0.00
0.01 0.01 0.00 0.01 0.01 0.02 0.00 0.00 0.00 0.00 0.00 0.00 0.00 0.00 0.00 0.00 0.00 0.00 0.00 0.00 0.00 0.00 0.02 0.00 0.00 0.00 0.00 0.00 0.00 0.00 0.00 0.00 0.00 0.00 0.00 0.00 0.00 0.00 0.00 0.01 0.03 0.04 0.03 0.01 0.00
0.01 0.01 0.01 0.01 0.03 0.02 0.00 0.00 0.00 0.00 0.00 0.00 0.00 0.00 0.00 0.00 0.00 0.00 0.00 0.00 0.00 0.00 0.01 0.00 0.00 0.00 0.00 0.00 0.00 0.00 0.00 0.00 0.00 0.00 0.00 0.00 0.00 0.00 0.00 0.00 0.00 0.01 0.01 0.00 0.00
0.02 0.01 0.01 0.02 0.04 0.01 0.01 0.00 0.00 0.00 0.00 0.00 0.00 0.00 0.00 0.00 0.00 0.00 0.00 0.00 0.00 0.00 0.00 0.01 0.01 0.00 0.00 0.00 0.00 0.00 0.00 0.00 0.00 0.00 0.00 0.00 0.00 0.00 0.00 0.01 0.01 0.01 0.00 0.00 0.00
0.02 0.01 0.01 0.04 0.02 0.00 0.00 0.00 0.00 0.00 0.00 0.00 0.00 0.00 0.00 0.00 0.00 0.00 0.00 0.00 0.00 0.00 0.00 0.02 0.00 0.00 0.00 0.00 0.00 0.01 0.00 0.00 0.00 0.00 0.02 0.00 0.00 0.01 0.00 0.00 0.00 0.01 0.01 0.01 0.00
0.03 0.01 0.02 0.05 0.01 0.00 0.00 0.00 0.00 0.02 0.01 0.00 0.00 0.00 0.00 0.00 0.00 0.00 0.00 0.00 0.00 0.00 0.00 0.01 0.00 0.00 0.00 0.00 0.00 0.01 0.00 0.00 0.00 0.00 0.01 0.02 0.00 0.02 0.00 0.00 0.00 0.00 0.00 0.00 0.00
0.04 0.02 0.05 0.05 0.02 0.00 0.01 0.02 0.09 0.07 0.02 0.00 0.00 0.00 0.00 0.00 0.00 0.00 0.00 0.00 0.00 0.00 0.00 0.01 0.01 0.01 0.01 0.00 0.00 0.00 0.00 0.00 0.00 0.00 0.00 0.01 0.02 0.01 0.01 0.01 0.03 0.02 0.00 0.00 0.00
0.06 0.04 0.09 0.04 0.01 0.01 0.02 0.11 0.17 0.05 0.00 0.00 0.00 0.00 0.00 0.00 0.00 0.00 0.00 0.00 0.00 0.00 0.00 0.00 0.00 0.01 0.01 0.00 0.00 0.00 0.00 0.01 0.10 0.04 0.02 0.05 0.05 0.03 0.00 0.00 0.01 0.01 0.00 0.00 0.01
0.10 0.12 0.11 0.04 0.00 0.03 0.10 0.26 0.11 0.00 0.00 0.00 0.00 0.00 0.00 0.00 0.00 0.00 0.00 0.00 0.00 0.00 0.00 0.00 0.00 0.00 0.00 0.00 0.02 0.01 0.00 0.04 0.08 0.05 0.05 0.05 0.01 0.00 0.00 0.00 0.00 0.00 0.00 0.00 0.00
0.28 0.20 0.16 0.03 0.02 0.06 0.29 0.27 0.03 0.00 0.00 0.00 0.00 0.00 0.00 0.00 0.00 0.00 0.00 0.00 0.00 0.00 0.00 0.00 0.01 0.01 0.00 0.00 0.00 0.01 0.02 0.00 0.00 0.01 0.01 0.00 0.00 0.00 0.00 0.00 0.00 0.00 0.00 0.00 0.00
0.37 0.32 0.10 0.02 0.09 0.33 0.51 0.15 0.00 0.00 0.00 0.00 0.00 0.00 0.00 0.00 0.00 0.00 0.00 0.00 0.00 0.00 0.00 0.02 0.06 0.03 0.00 0.00 0.00 0.00 0.00 0.00 0.00 0.00 0.02 0.00 0.00 0.01 0.01 0.00 0.00 0.00 0.00 0.00 0.00
0.69 0.70 0.13 0.05 0.55 0.70 0.36 0.04 0.00 0.00 0.00 0.00 0.00 0.00 0.00 0.00 0.01 0.03 0.00 0.00 0.00 0.00 0.00 0.00 0.03 0.08 0.00 0.00 0.00 0.00 0.00 0.00 0.00 0.00 0.04 0.08 0.01 0.00 0.00 0.00 0.00 0.00 0.00 0.00 0.00
1.33 0.98 0.28 0.24 0.64 0.39 0.10 0.00 0.00 0.00 0.00 0.00 0.00 0.00 0.00 0.00 0.00 0.02 0.01 0.00 0.00 0.00 0.00 0.00 0.00 0.01 0.01 0.01 0.01 0.00 0.00 0.01 0.01 0.02 0.01 0.03 0.01 0.00 0.00 0.00 0.00 0.01 0.00 0.00 0.00
1.69 0.93 0.91 0.48 0.33 0.14 0.05 0.03 0.00 0.00 0.00 0.00 0.00 0.00 0.00 0.00 0.02 0.01 0.03 0.00 0.00 0.00 0.00 0.00 0.01 0.02 0.00 0.02 0.01 0.00 0.00 0.00 0.00 0.00 0.00 0.04 0.01 0.00 0.00 0.00 0.00 0.00 0.00 0.00 0.00
1.93 1.28 1.62 1.20 0.17 0.07 0.07 0.07 0.05 0.00 0.00 0.00 0.00 0.00 0.02 0.02 0.03 0.06 0.03 0.05 0.00 0.00 0.00 0.05 0.05 0.02 0.02 0.00 0.00 0.00 0.00 0.00 0.00 0.00 0.00 0.00 0.00 0.00 0.00 0.00 0.00 0.00 0.00 0.00 0.00
2.60 0.78 0.50 0.65 0.43 0.14 0.09 0.07 0.03 0.03 0.01 0.00 0.00 0.02 0.03 0.04 0.03 0.03 0.10 0.09 0.07 0.02 0.01 0.10 0.12 0.01 0.00 0.00 0.00 0.00 0.00 0.00 0.00 0.00 0.00 0.00 0.00 0.00 0.00 0.00 0.00 0.00 0.00 0.00 0.00
2.29 0.40 0.22 0.13 0.11 0.17 0.19 0.13 0.05 0.02 0.02 0.02 0.00 0.00 0.02 0.05 0.03 0.03 0.08 0.27 0.21 0.22 0.17 0.15 0.12 0.02 0.00 0.00 0.00 0.01 0.00 0.00 0.00 0.00 0.00 0.00 0.00 0.00 0.00 0.00 0.00 0.00 0.00 0.00 0.00
1.71 0.26 0.35 0.19 0.15 0.28 0.20 0.07 0.05 0.04 0.02 0.00 0.01 0.02 0.03 0.05 0.06 0.11 0.09 0.14 0.27 0.43 0.42 0.27 0.19 0.10 0.04 0.00 0.01 0.06 0.00 0.00 0.00 0.00 0.00 0.00 0.00 0.00 0.00 0.00 0.00 0.00 0.00 0.00 0.00

GFSSW_prec_precacc_096.txt.gz
Total_Precipitation_Accumulation
0.02 0.01 0.01 0.01 0.00 0.00 0.00 0.00 0.00 0.00 0.00 0.00 0.00 0.00 0.00 0.00 0.00 0.00 0.00 0.00 0.00 0.00 0.00 0.00 0.00 0.00 0.00 0.00 0.00 0.00 0.00 0.00 0.01 0.02 0.18 0.25 0.17 0.26 0.11 0.01 0.04 0.21 1.07 0.42 0.22
0.02 0.02 0.02 0.02 0.01 0.00 0.00 0.00 0.00 0.00 0.00 0.00 0.00 0.00 0.00 0.00 0.00 0.00 0.00 0.00 0.00 0.00 0.00 0.00 0.00 0.00 0.00 0.00 0.00 0.00 0.00 0.00 0.03 0.08 0.25 0.33 0.04 0.18 0.07 0.03 0.19 0.63 1.02 0.34 0.21
0.01 0.02 0.01 0.01 0.00 0.00 0.00 0.00 0.00 0.00 0.00 0.00 0.00 0.00 0.00 0.00 0.00 0.00 0.00 0.00 0.00 0.00 0.00 0.00 0.00 0.00 0.00 0.00 0.00 0.00 0.00 0.00 0.00 0.06 0.10 0.29 0.01 0.05 0.03 0.06 0.42 0.46 0.60 0.36 0.34
0.00 0.00 0.01 0.01 0.00 0.00 0.00 0.00 0.00 0.00 0.00 0.00 0.00 0.00 0.00 0.00 0.00 0.00 0.00 0.00 0.00 0.00 0.00 0.00 0.00 0.00 0.00 0.00 0.00 0.00 0.00 0.00 0.00 0.00 0.00 0.00 0.07 0.15 0.09 0.10 0.21 0.45 0.47 0.33 0.41
0.00 0.00 0.00 0.00 0.00 0.00 0.00 0.00 0.00 0.00 0.00 0.00 0.00 0.00 0.00 0.00 0.00 0.00 0.00 0.00 0.00 0.00 0.00 0.00 0.00 0.00 0.00 0.00 0.00 0.00 0.00 0.00 0.00 0.01 0.00 0.01 0.09 0.11 0.01 0.05 0.22 0.39 0.26 0.25 0.29
0.00 0.00 0.00 0.00 0.00 0.00 0.00 0.00 0.00 0.00 0.00 0.00 0.00 0.00 0.00 0.00 0.00 0.00 0.00 0.00 0.00 0.00 0.00 0.00 0.00 0.00 0.00 0.00 0.00 0.00 0.00 0.00 0.00 0.00 0.00 0.00 0.18 0.02 0.11 0.13 0.30 0.94 0.29 0.16 0.19
0.01 0.00 0.00 0.01 0.01 0.01 0.01 0.00 0.00 0.00 0.00 0.00 0.00 0.00 0.00 0.00 0.00 0.00 0.00 0.00 0.00 0.00 0.00 0.00 0.00 0.00 0.00 0.00 0.00 0.00 0.00 0.00 0.04 0.02 0.00 0.02 0.06 0.02 0.16 0.27 0.40 0.34 0.16 0.04 0.04
0.01 0.01 0.00 0.00 0.01 0.00 0.00 0.00 0.00 0.00 0.00 0.00 0.00 0.00 0.00 0.00 0.00 0.00 0.00 0.00 0.00 0.00 0.00 0.00 0.00 0.00 0.00 0.00 0.00 0.00 0.00 0.00 0.05 0.01 0.00 0.01 0.13 0.25 0.31 0.13 0.33 0.47 0.10 0.03 0.00
0.00 0.00 0.00 0.00 0.00 0.01 0.00 0.00 0.00 0.00 0.00 0.00 0.00 0.00 0.00 0.00 0.00 0.00 0.00 0.00 0.00 0.00 0.00 0.00 0.00 0.00 0.00 0.01 0.00 0.00 0.00 0.00 0.00 0.00 0.00 0.00 0.00 0.03 0.15 0.27 0.39 0.29 0.04 0.00 0.00
0.01 0.00 0.00 0.00 0.01 0.01 0.00 0.00 0.00 0.00 0.00 0.00 0.01 0.01 0.00 0.00 0.00 0.00 0.00 0.01 0.01 0.00 0.00 0.00 0.00 0.00 0.00 0.00 0.00 0.00 0.00 0.00 0.00 0.00 0.00 0.00 0.00 0.00 0.02 0.06 0.06 0.05 0.02 0.01 0.00
0.02 0.01 0.00 0.01 0.01 0.02 0.00 0.00 0.00 0.00 0.00 0.00 0.00 0.00 0.00 0.00 0.00 0.00 0.00 0.00 0.00 0.00 0.02 0.00 0.00 0.00 0.00 0.00 0.00 0.00 0.00 0.00 0.00 0.00 0.00 0.00 0.00 0.00 0.00 0.01 0.03 0.04 0.03 0.01 0.00
0.02 0.01 0.01 0.01 0.03 0.02 0.00 0.00 0.00 0.00 0.00 0.00 0.00 0.00 0.00 0.00 0.00 0.00 0.00 0.00 0.00 0.00 0.01 0.00 0.00 0.00 0.00 0.00 0.00 0.00 0.00 0.00 0.00 0.00 0.00 0.00 0.00 0.00 0.00 0.00 0.00 0.01 0.01 0.00 0.00
0.02 0.01 0.01 0.02 0.04 0.01 0.01 0.00 0.00 0.00 0.00 0.00 0.00 0.00 0.00 0.00 0.00 0.00 0.00 0.00 0.00 0.00 0.00 0.01 0.01 0.00 0.00 0.00 0.00 0.00 0.00 0.00 0.00 0.00 0.00 0.00 0.00 0.00 0.00 0.01 0.01 0.01 0.00 0.00 0.00
0.03 0.01 0.02 0.04 0.02 0.00 0.00 0.00 0.00 0.00 0.00 0.00 0.00 0.00 0.00 0.00 0.00 0.00 0.00 0.00 0.00 0.00 0.00 0.02 0.00 0.00 0.00 0.00 0.00 0.01 0.00 0.00 0.00 0.00 0.02 0.00 0.00 0.01 0.00 0.00 0.00 0.01 0.01 0.01 0.00
0.03 0.01 0.02 0.05 0.01 0.00 0.00 0.00 0.00 0.02 0.01 0.00 0.00 0.00 0.00 0.00 0.00 0.00 0.00 0.00 0.00 0.00 0.00 0.01 0.00 0.00 0.00 0.00 0.00 0.01 0.00 0.00 0.00 0.00 0.01 0.02 0.00 0.02 0.00 0.00 0.00 0.00 0.00 0.00 0.00
0.05 0.04 0.06 0.05 0.02 0.00 0.01 0.02 0.09 0.07 0.02 0.00 0.00 0.00 0.00 0.00 0.00 0.00 0.00 0.00 0.00 0.00 0.00 0.01 0.01 0.01 0.01 0.00 0.00 0.00 0.00 0.00 0.00 0.00 0.00 0.01 0.02 0.01 0.01 0.01 0.03 0.02 0.00 0.00 0.00
0.08 0.06 0.10 0.04 0.01 0.01 0.02 0.11 0.17 0.05 0.00 0.00 0.00 0.00 0.00 0.00 0.00 0.00 0.00 0.00 0.00 0.00 0.00 0.00 0.00 0.01 0.01 0.00 0.00 0.00 0.00 0.01 0.11 0.05 0.02 0.05 0.05 0.03 0.00 0.00 0.01 0.01 0.00 0.00 0.01
0.13 0.15 0.11 0.04 0.00 0.03 0.10 0.26 0.11 0.00 0.00 0.00 0.00 0.00 0.00 0.00 0.00 0.00 0.00 0.00 0.00 0.00 0.00 0.00 0.00 0.00 0.00 0.00 0.02 0.01 0.00 0.04 0.09 0.05 0.06 0.05 0.01 0.00 0.00 0.00 0.00 0.00 0.00 0.00 0.00
0.31 0.22 0.19 0.04 0.03 0.07 0.30 0.28 0.03 0.00 0.00 0.00 0.00 0.00 0.00 0.00 0.00 0.00 0.00 0.00 0.00 0.00 0.00 0.00 0.01 0.01 0.00 0.00 0.00 0.01 0.02 0.00 0.00 0.02 0.03 0.00 0.00 0.00 0.00 0.00 0.00 0.00 0.00 0.00 0.00
0.41 0.38 0.12 0.03 0.12 0.34 0.53 0.15 0.00 0.00 0.00 0.00 0.00 0.00 0.00 0.00 0.00 0.00 0.00 0.00 0.00 0.00 0.00 0.02 0.06 0.03 0.00 0.00 0.00 0.00 0.00 0.00 0.00 0.00 0.02 0.00 0.01 0.01 0.01 0.00 0.00 0.00 0.00 0.00 0.00
0.75 0.79 0.14 0.06 0.58 0.74 0.38 0.04 0.00 0.00 0.00 0.00 0.00 0.00 0.00 0.01 0.01 0.03 0.01 0.02 0.00 0.00 0.00 0.00 0.03 0.09 0.00 0.00 0.00 0.00 0.00 0.00 0.00 0.00 0.04 0.08 0.02 0.00 0.01 0.00 0.00 0.00 0.00 0.00 0.00
1.42 1.07 0.34 0.27 0.69 0.40 0.10 0.00 0.00 0.00 0.00 0.00 0.00 0.00 0.00 0.00 0.00 0.02 0.01 0.01 0.00 0.00 0.00 0.00 0.00 0.01 0.02 0.01 0.01 0.00 0.00 0.01 0.01 0.02 0.01 0.03 0.01 0.00 0.00 0.00 0.00 0.01 0.00 0.00 0.00
1.77 0.96 1.02 0.56 0.38 0.15 0.06 0.03 0.00 0.00 0.00 0.00 0.00 0.00 0.00 0.00 0.02 0.01 0.03 0.00 0.00 0.00 0.00 0.00 0.01 0.02 0.00 0.02 0.01 0.00 0.00 0.00 0.00 0.00 0.00 0.05 0.01 0.00 0.00 0.00 0.00 0.00 0.00 0.00 0.00
2.04 1.35 1.68 1.29 0.20 0.09 0.13 0.10 0.05 0.00 0.00 0.00 0.00 0.00 0.02 0.02 0.03 0.06 0.03 0.05 0.00 0.00 0.00 0.05 0.05 0.02 0.03 0.00 0.00 0.00 0.00 0.00 0.00 0.00 0.00 0.00 0.00 0.00 0.00 0.00 0.00 0.00 0.00 0.00 0.00
2.68 0.84 0.55 0.73 0.46 0.15 0.12 0.14 0.06 0.04 0.02 0.00 0.00 0.02 0.03 0.04 0.03 0.03 0.10 0.09 0.07 0.02 0.01 0.10 0.12 0.01 0.00 0.00 0.00 0.00 0.00 0.00 0.00 0.00 0.00 0.00 0.00 0.00 0.00 0.00 0.00 0.00 0.00 0.00 0.00
2.34 0.41 0.24 0.16 0.15 0.22 0.21 0.14 0.10 0.04 0.04 0.03 0.01 0.00 0.02 0.05 0.03 0.03 0.08 0.27 0.21 0.22 0.17 0.15 0.12 0.02 0.00 0.00 0.00 0.01 0.00 0.00 0.00 0.00 0.00 0.00 0.00 0.00 0.00 0.00 0.00 0.00 0.00 0.00 0.00
1.73 0.27 0.42 0.28 0.20 0.32 0.24 0.10 0.05 0.06 0.04 0.01 0.02 0.04 0.04 0.05 0.06 0.11 0.09 0.14 0.27 0.43 0.43 0.27 0.19 0.10 0.04 0.00 0.01 0.06 0.00 0.00 0.00 0.00 0.00 0.00 0.00 0.00 0.00 0.00 0.00 0.00 0.00 0.00 0.00

GFSSW_prec_precacc_099.txt.gz
Total_Precipitation_Accumulation
0.02 0.01 0.01 0.01 0.00 0.00 0.00 0.00 0.00 0.00 0.00 0.00 0.00 0.00 0.00 0.00 0.00 0.00 0.00 0.00 0.00 0.00 0.00 0.00 0.00 0.00 0.00 0.00 0.00 0.00 0.00 0.00 0.01 0.02 0.18 0.25 0.17 0.26 0.11 0.01 0.04 0.21 1.07 0.42 0.22
0.02 0.02 0.02 0.02 0.01 0.00 0.00 0.00 0.00 0.00 0.00 0.00 0.00 0.00 0.00 0.00 0.00 0.00 0.00 0.00 0.00 0.00 0.00 0.00 0.00 0.00 0.00 0.00 0.00 0.00 0.00 0.00 0.03 0.08 0.25 0.33 0.04 0.18 0.07 0.03 0.19 0.63 1.02 0.34 0.21
0.01 0.02 0.01 0.01 0.00 0.00 0.00 0.00 0.00 0.00 0.00 0.00 0.00 0.00 0.00 0.00 0.00 0.00 0.00 0.00 0.00 0.00 0.00 0.00 0.00 0.00 0.00 0.00 0.00 0.00 0.00 0.00 0.00 0.06 0.10 0.29 0.01 0.05 0.03 0.06 0.42 0.46 0.60 0.36 0.34
0.00 0.00 0.01 0.01 0.00 0.00 0.00 0.00 0.00 0.00 0.00 0.00 0.00 0.00 0.00 0.00 0.00 0.00 0.00 0.00 0.00 0.00 0.00 0.00 0.00 0.00 0.00 0.00 0.00 0.00 0.00 0.00 0.00 0.00 0.00 0.00 0.07 0.15 0.09 0.10 0.21 0.45 0.47 0.33 0.41
0.00 0.00 0.00 0.00 0.00 0.00 0.00 0.00 0.00 0.00 0.00 0.00 0.00 0.00 0.00 0.00 0.00 0.00 0.00 0.00 0.00 0.00 0.00 0.00 0.00 0.00 0.00 0.00 0.00 0.00 0.00 0.00 0.00 0.01 0.00 0.01 0.09 0.11 0.01 0.05 0.22 0.39 0.26 0.25 0.29
0.00 0.00 0.00 0.00 0.00 0.00 0.00 0.00 0.00 0.00 0.00 0.00 0.00 0.00 0.00 0.00 0.00 0.00 0.00 0.00 0.00 0.00 0.00 0.00 0.00 0.00 0.00 0.00 0.00 0.00 0.00 0.00 0.00 0.00 0.00 0.00 0.18 0.02 0.11 0.13 0.30 0.94 0.29 0.16 0.19
0.01 0.00 0.00 0.01 0.01 0.01 0.01 0.00 0.00 0.00 0.00 0.00 0.00 0.00 0.00 0.00 0.00 0.00 0.00 0.00 0.00 0.00 0.00 0.00 0.00 0.00 0.00 0.00 0.00 0.00 0.00 0.00 0.04 0.02 0.00 0.02 0.06 0.02 0.16 0.27 0.40 0.34 0.16 0.04 0.04
0.01 0.01 0.00 0.00 0.01 0.00 0.00 0.00 0.00 0.00 0.00 0.00 0.00 0.00 0.00 0.00 0.00 0.00 0.00 0.00 0.00 0.00 0.00 0.00 0.00 0.00 0.00 0.00 0.00 0.00 0.00 0.00 0.05 0.01 0.00 0.01 0.13 0.25 0.31 0.13 0.33 0.47 0.10 0.03 0.00
0.00 0.00 0.00 0.00 0.00 0.01 0.00 0.00 0.00 0.00 0.00 0.00 0.00 0.00 0.00 0.00 0.00 0.00 0.00 0.00 0.00 0.00 0.00 0.00 0.00 0.00 0.00 0.01 0.00 0.00 0.00 0.00 0.00 0.00 0.00 0.00 0.00 0.03 0.15 0.27 0.39 0.29 0.04 0.00 0.00
0.01 0.00 0.00 0.00 0.01 0.01 0.00 0.00 0.00 0.00 0.00 0.00 0.01 0.01 0.00 0.00 0.00 0.00 0.00 0.01 0.01 0.00 0.00 0.00 0.00 0.00 0.00 0.00 0.00 0.00 0.00 0.00 0.00 0.00 0.00 0.00 0.00 0.00 0.02 0.06 0.06 0.05 0.02 0.01 0.00
0.02 0.01 0.00 0.01 0.01 0.02 0.00 0.00 0.00 0.00 0.00 0.00 0.00 0.00 0.00 0.00 0.00 0.00 0.00 0.00 0.00 0.00 0.02 0.00 0.00 0.00 0.00 0.00 0.00 0.00 0.00 0.00 0.00 0.00 0.00 0.00 0.00 0.00 0.00 0.01 0.03 0.04 0.03 0.01 0.00
0.02 0.01 0.01 0.01 0.03 0.02 0.00 0.00 0.00 0.00 0.00 0.00 0.00 0.00 0.00 0.00 0.00 0.00 0.00 0.00 0.00 0.00 0.01 0.00 0.00 0.00 0.00 0.00 0.00 0.00 0.00 0.00 0.00 0.00 0.00 0.00 0.00 0.00 0.00 0.00 0.00 0.01 0.01 0.00 0.00
0.02 0.01 0.01 0.02 0.04 0.01 0.01 0.00 0.00 0.00 0.00 0.00 0.00 0.00 0.00 0.00 0.00 0.00 0.00 0.00 0.00 0.00 0.00 0.01 0.01 0.00 0.00 0.00 0.00 0.00 0.00 0.00 0.00 0.00 0.00 0.00 0.00 0.00 0.00 0.01 0.01 0.01 0.00 0.00 0.00
0.03 0.01 0.02 0.04 0.02 0.00 0.00 0.00 0.00 0.00 0.00 0.00 0.00 0.00 0.00 0.00 0.00 0.00 0.00 0.00 0.00 0.00 0.00 0.02 0.00 0.00 0.00 0.00 0.00 0.01 0.00 0.00 0.00 0.00 0.02 0.00 0.00 0.01 0.00 0.00 0.00 0.01 0.01 0.01 0.00
0.04 0.02 0.03 0.06 0.01 0.00 0.00 0.00 0.00 0.02 0.01 0.00 0.00 0.00 0.00 0.00 0.00 0.00 0.00 0.00 0.00 0.00 0.00 0.01 0.00 0.00 0.00 0.00 0.00 0.01 0.00 0.00 0.00 0.00 0.01 0.02 0.00 0.02 0.00 0.00 0.00 0.00 0.00 0.00 0.00
0.05 0.04 0.07 0.05 0.02 0.00 0.01 0.02 0.10 0.07 0.02 0.00 0.00 0.00 0.00 0.00 0.00 0.00 0.00 0.00 0.00 0.00 0.00 0.01 0.01 0.01 0.01 0.00 0.00 0.00 0.00 0.00 0.00 0.00 0.00 0.01 0.02 0.01 0.01 0.01 0.03 0.02 0.00 0.00 0.00
0.09 0.07 0.11 0.05 0.02 0.01 0.03 0.12 0.18 0.05 0.00 0.00 0.00 0.00 0.00 0.00 0.00 0.00 0.00 0.00 0.00 0.00 0.00 0.00 0.00 0.01 0.01 0.00 0.00 0.00 0.00 0.01 0.11 0.05 0.02 0.05 0.05 0.03 0.00 0.00 0.01 0.01 0.00 0.00 0.01
0.13 0.15 0.12 0.05 0.00 0.04 0.13 0.30 0.13 0.00 0.00 0.00 0.00 0.00 0.01 0.00 0.00 0.00 0.00 0.00 0.00 0.00 0.00 0.00 0.00 0.00 0.00 0.00 0.02 0.01 0.00 0.04 0.09 0.06 0.06 0.06 0.01 0.00 0.00 0.00 0.00 0.00 0.00 0.00 0.00
0.31 0.22 0.20 0.05 0.04 0.14 0.34 0.33 0.03 0.00 0.00 0.00 0.00 0.00 0.00 0.00 0.00 0.00 0.00 0.00 0.00 0.00 0.00 0.00 0.01 0.01 0.00 0.00 0.00 0.01 0.02 0.00 0.00 0.02 0.04 0.01 0.00 0.00 0.00 0.00 0.00 0.00 0.00 0.00 0.00
0.42 0.40 0.13 0.03 0.17 0.44 0.60 0.17 0.00 0.00 0.00 0.00 0.00 0.00 0.00 0.00 0.01 0.01 0.01 0.02 0.02 0.00 0.00 0.02 0.07 0.03 0.00 0.00 0.00 0.00 0.00 0.00 0.00 0.00 0.02 0.00 0.01 0.01 0.01 0.00 0.00 0.00 0.00 0.00 0.00
0.76 0.81 0.14 0.09 0.65 0.92 0.41 0.04 0.00 0.00 0.00 0.00 0.00 0.00 0.00 0.01 0.02 0.04 0.02 0.11 0.07 0.00 0.00 0.00 0.03 0.10 0.00 0.00 0.00 0.00 0.00 0.00 0.00 0.00 0.04 0.08 0.02 0.00 0.01 0.00 0.00 0.00 0.00 0.00 0.00
1.43 1.11 0.38 0.36 0.75 0.45 0.11 0.00 0.00 0.00 0.00 0.00 0.00 0.00 0.00 0.00 0.00 0.02 0.04 0.05 0.05 0.01 0.00 0.00 0.00 0.02 0.02 0.01 0.01 0.00 0.00 0.01 0.02 0.02 0.01 0.03 0.01 0.00 0.00 0.00 0.00 0.01 0.00 0.00 0.00
1.79 0.97 1.05 0.89 0.60 0.16 0.06 0.03 0.00 0.00 0.00 0.00 0.00 0.00 0.00 0.00 0.02 0.01 0.05 0.00 0.00 0.01 0.01 0.00 0.01 0.02 0.02 0.08 0.03 0.00 0.00 0.00 0.00 0.00 0.00 0.05 0.01 0.00 0.00 0.00 0.01 0.00 0.00 0.00 0.00
2.08 1.39 1.71 1.34 0.27 0.11 0.18 0.18 0.07 0.00 0.00 0.00 0.00 0.00 0.02 0.02 0.03 0.06 0.04 0.05 0.00 0.00 0.01 0.05 0.05 0.02 0.03 0.03 0.02 0.00 0.01 0.01 0.00 0.00 0.00 0.00 0.00 0.00 0.01 0.01 0.00 0.00 0.00 0.00 0.00
2.72 0.86 0.59 0.86 0.59 0.19 0.13 0.18 0.13 0.07 0.02 0.00 0.00 0.02 0.03 0.04 0.03 0.03 0.10 0.09 0.07 0.02 0.01 0.10 0.12 0.01 0.00 0.00 0.00 0.00 0.00 0.01 0.02 0.01 0.00 0.00 0.00 0.00 0.01 0.02 0.00 0.00 0.00 0.00 0.00
2.37 0.42 0.24 0.16 0.16 0.27 0.28 0.16 0.10 0.05 0.07 0.05 0.01 0.00 0.02 0.05 0.03 0.03 0.08 0.27 0.21 0.22 0.17 0.15 0.12 0.02 0.00 0.00 0.00 0.01 0.00 0.00 0.00 0.00 0.00 0.00 0.00 0.00 0.00 0.00 0.00 0.00 0.00 0.00 0.00
1.74 0.27 0.45 0.29 0.21 0.34 0.26 0.13 0.08 0.06 0.04 0.02 0.03 0.05 0.05 0.06 0.06 0.11 0.09 0.14 0.27 0.43 0.43 0.27 0.19 0.10 0.04 0.00 0.01 0.06 0.00 0.00 0.00 0.00 0.00 0.00 0.00 0.00 0.00 0.00 0.00 0.00 0.00 0.00 0.00

GFSSW_prec_precacc_102.txt.gz
Total_Precipitation_Accumulation
0.02 0.01 0.01 0.01 0.00 0.00 0.00 0.00 0.00 0.00 0.00 0.00 0.00 0.00 0.00 0.00 0.00 0.00 0.00 0.00 0.00 0.00 0.00 0.00 0.00 0.00 0.00 0.00 0.00 0.00 0.00 0.00 0.01 0.02 0.18 0.25 0.17 0.26 0.11 0.01 0.04 0.21 1.07 0.42 0.22
0.02 0.02 0.02 0.02 0.01 0.00 0.00 0.00 0.00 0.00 0.00 0.00 0.00 0.00 0.00 0.00 0.00 0.00 0.00 0.00 0.00 0.00 0.00 0.00 0.00 0.00 0.00 0.00 0.00 0.00 0.00 0.00 0.03 0.08 0.25 0.33 0.04 0.18 0.07 0.03 0.19 0.63 1.02 0.34 0.21
0.01 0.02 0.01 0.01 0.00 0.00 0.00 0.00 0.00 0.00 0.00 0.00 0.00 0.00 0.00 0.00 0.00 0.00 0.00 0.00 0.00 0.00 0.00 0.00 0.00 0.00 0.00 0.00 0.00 0.00 0.00 0.00 0.00 0.06 0.10 0.29 0.01 0.05 0.03 0.06 0.42 0.46 0.60 0.36 0.34
0.00 0.00 0.01 0.01 0.00 0.00 0.00 0.00 0.00 0.00 0.00 0.00 0.00 0.00 0.00 0.00 0.00 0.00 0.00 0.00 0.00 0.00 0.00 0.00 0.00 0.00 0.00 0.00 0.00 0.00 0.00 0.00 0.00 0.00 0.00 0.00 0.07 0.15 0.09 0.10 0.21 0.45 0.47 0.33 0.41
0.00 0.00 0.00 0.00 0.00 0.00 0.00 0.00 0.00 0.00 0.00 0.00 0.00 0.00 0.00 0.00 0.00 0.00 0.00 0.00 0.00 0.00 0.00 0.00 0.00 0.00 0.00 0.00 0.00 0.00 0.00 0.00 0.00 0.01 0.00 0.01 0.09 0.11 0.01 0.05 0.22 0.39 0.26 0.25 0.29
0.01 0.00 0.00 0.00 0.00 0.00 0.00 0.00 0.00 0.00 0.00 0.00 0.00 0.00 0.00 0.00 0.00 0.00 0.00 0.00 0.00 0.00 0.00 0.00 0.00 0.00 0.00 0.00 0.00 0.00 0.00 0.00 0.00 0.00 0.00 0.00 0.18 0.02 0.11 0.13 0.30 0.94 0.29 0.16 0.19
0.01 0.00 0.00 0.01 0.01 0.01 0.01 0.00 0.00 0.00 0.00 0.00 0.00 0.00 0.00 0.00 0.00 0.00 0.00 0.00 0.00 0.00 0.00 0.00 0.00 0.00 0.00 0.00 0.00 0.00 0.00 0.00 0.04 0.02 0.00 0.02 0.06 0.02 0.16 0.27 0.40 0.34 0.16 0.04 0.04
0.01 0.01 0.00 0.00 0.01 0.00 0.00 0.00 0.00 0.00 0.00 0.00 0.00 0.00 0.00 0.00 0.00 0.00 0.00 0.00 0.00 0.00 0.00 0.00 0.00 0.00 0.00 0.00 0.00 0.00 0.00 0.00 0.05 0.01 0.00 0.01 0.13 0.25 0.31 0.13 0.33 0.47 0.10 0.03 0.00
0.00 0.00 0.00 0.00 0.00 0.01 0.00 0.00 0.00 0.00 0.00 0.00 0.00 0.00 0.00 0.00 0.00 0.00 0.00 0.00 0.00 0.00 0.00 0.00 0.00 0.00 0.00 0.01 0.00 0.00 0.00 0.00 0.00 0.00 0.00 0.00 0.00 0.03 0.15 0.27 0.39 0.29 0.04 0.00 0.00
0.01 0.00 0.00 0.00 0.01 0.01 0.00 0.00 0.00 0.00 0.00 0.00 0.01 0.01 0.00 0.00 0.00 0.00 0.00 0.01 0.01 0.00 0.00 0.00 0.00 0.00 0.00 0.00 0.00 0.00 0.00 0.00 0.00 0.00 0.00 0.00 0.00 0.00 0.02 0.06 0.06 0.05 0.02 0.01 0.00
0.02 0.01 0.00 0.01 0.01 0.02 0.00 0.00 0.00 0.00 0.00 0.00 0.00 0.00 0.00 0.00 0.00 0.00 0.00 0.00 0.00 0.00 0.02 0.00 0.00 0.00 0.00 0.00 0.00 0.00 0.00 0.00 0.00 0.00 0.00 0.00 0.00 0.00 0.00 0.01 0.03 0.04 0.03 0.01 0.00
0.02 0.01 0.01 0.01 0.03 0.02 0.00 0.00 0.00 0.00 0.00 0.00 0.00 0.00 0.00 0.00 0.00 0.00 0.00 0.00 0.00 0.00 0.01 0.00 0.00 0.00 0.00 0.00 0.00 0.00 0.00 0.00 0.00 0.00 0.00 0.00 0.00 0.00 0.00 0.00 0.00 0.01 0.01 0.00 0.00
0.02 0.01 0.01 0.02 0.04 0.01 0.01 0.00 0.00 0.00 0.00 0.00 0.00 0.00 0.00 0.00 0.00 0.00 0.00 0.00 0.00 0.00 0.00 0.01 0.01 0.00 0.00 0.00 0.00 0.00 0.00 0.00 0.00 0.00 0.00 0.00 0.00 0.00 0.00 0.01 0.01 0.01 0.00 0.00 0.00
0.03 0.01 0.02 0.04 0.02 0.00 0.00 0.00 0.00 0.00 0.00 0.00 0.00 0.00 0.00 0.00 0.00 0.00 0.00 0.00 0.00 0.00 0.00 0.02 0.00 0.00 0.00 0.00 0.00 0.01 0.00 0.00 0.00 0.00 0.02 0.00 0.00 0.01 0.00 0.00 0.00 0.01 0.01 0.01 0.00
0.04 0.02 0.03 0.06 0.01 0.00 0.00 0.00 0.00 0.02 0.01 0.00 0.00 0.00 0.00 0.00 0.00 0.00 0.00 0.00 0.00 0.00 0.00 0.01 0.00 0.00 0.00 0.00 0.00 0.01 0.00 0.00 0.00 0.00 0.01 0.02 0.00 0.02 0.00 0.00 0.00 0.00 0.00 0.00 0.00
0.05 0.04 0.07 0.05 0.02 0.00 0.01 0.02 0.11 0.09 0.03 0.00 0.00 0.00 0.00 0.00 0.00 0.00 0.00 0.00 0.00 0.00 0.00 0.01 0.01 0.01 0.01 0.00 0.00 0.00 0.00 0.00 0.00 0.00 0.00 0.01 0.02 0.01 0.01 0.01 0.03 0.02 0.00 0.00 0.00
0.09 0.07 0.11 0.05 0.02 0.01 0.04 0.16 0.21 0.07 0.00 0.00 0.00 0.00 0.00 0.00 0.00 0.00 0.00 0.00 0.00 0.00 0.00 0.00 0.00 0.01 0.01 0.00 0.00 0.00 0.00 0.01 0.11 0.05 0.02 0.05 0.05 0.03 0.00 0.00 0.01 0.01 0.00 0.00 0.01
0.13 0.15 0.12 0.05 0.00 0.07 0.18 0.53 0.28 0.00 0.00 0.00 0.00 0.00 0.01 0.01 0.00 0.00 0.00 0.00 0.00 0.00 0.00 0.00 0.00 0.00 0.00 0.00 0.02 0.01 0.00 0.04 0.09 0.06 0.06 0.06 0.02 0.01 0.01 0.00 0.00 0.00 0.00 0.00 0.00
0.31 0.22 0.20 0.05 0.05 0.19 0.43 0.59 0.14 0.00 0.00 0.00 0.00 0.00 0.01 0.04 0.04 0.02 0.03 0.01 0.00 0.00 0.00 0.00 0.01 0.01 0.00 0.00 0.00 0.01 0.02 0.00 0.00 0.02 0.04 0.01 0.00 0.00 0.00 0.00 0.00 0.00 0.00 0.00 0.00
0.42 0.40 0.13 0.03 0.18 0.49 0.70 0.20 0.01 0.00 0.00 0.00 0.00 0.00 0.01 0.02 0.03 0.02 0.06 0.07 0.04 0.02 0.00 0.02 0.07 0.03 0.00 0.00 0.00 0.00 0.00 0.00 0.00 0.00 0.02 0.00 0.01 0.02 0.02 0.01 0.00 0.00 0.00 0.00 0.00
0.77 0.81 0.14 0.11 0.65 1.04 0.62 0.05 0.00 0.00 0.00 0.00 0.00 0.00 0.00 0.01 0.02 0.05 0.02 0.11 0.08 0.02 0.00 0.00 0.03 0.10 0.00 0.00 0.00 0.00 0.00 0.00 0.00 0.00 0.04 0.08 0.02 0.00 0.01 0.01 0.01 0.00 0.00 0.01 0.02
1.44 1.12 0.39 0.40 0.81 0.50 0.17 0.02 0.00 0.00 0.00 0.00 0.00 0.00 0.01 0.01 0.01 0.02 0.07 0.07 0.07 0.09 0.03 0.00 0.00 0.02 0.02 0.01 0.01 0.00 0.00 0.01 0.02 0.02 0.01 0.03 0.01 0.00 0.00 0.00 0.01 0.02 0.00 0.00 0.00
1.80 0.97 1.05 0.91 0.88 0.25 0.06 0.03 0.00 0.00 0.00 0.00 0.00 0.00 0.00 0.01 0.03 0.01 0.07 0.02 0.00 0.06 0.11 0.02 0.03 0.02 0.03 0.09 0.04 0.01 0.00 0.00 0.00 0.00 0.01 0.05 0.01 0.01 0.00 0.00 0.01 0.02 0.02 0.00 0.00
2.09 1.39 1.71 1.36 0.39 0.25 0.25 0.20 0.11 0.01 0.00 0.00 0.00 0.00 0.02 0.02 0.04 0.06 0.04 0.06 0.00 0.00 0.04 0.07 0.07 0.03 0.03 0.04 0.04 0.01 0.02 0.02 0.01 0.00 0.00 0.00 0.00 0.02 0.02 0.02 0.01 0.00 0.03 0.02 0.00
2.72 0.86 0.59 0.88 0.63 0.22 0.18 0.20 0.14 0.09 0.03 0.01 0.00 0.02 0.03 0.04 0.03 0.03 0.10 0.09 0.07 0.02 0.01 0.12 0.13 0.01 0.00 0.00 0.00 0.00 0.00 0.01 0.04 0.02 0.00 0.00 0.00 0.00 0.01 0.03 0.01 0.00 0.00 0.02 0.01
2.37 0.42 0.25 0.16 0.16 0.28 0.30 0.18 0.13 0.08 0.12 0.08 0.01 0.00 0.02 0.05 0.03 0.03 0.08 0.27 0.21 0.22 0.17 0.15 0.12 0.02 0.00 0.00 0.00 0.01 0.00 0.00 0.00 0.02 0.00 0.00 0.00 0.00 0.00 0.00 0.02 0.00 0.00 0.00 0.02
1.74 0.27 0.46 0.29 0.21 0.34 0.26 0.14 0.14 0.09 0.06 0.03 0.05 0.05 0.05 0.06 0.06 0.11 0.09 0.14 0.27 0.43 0.43 0.27 0.19 0.10 0.04 0.00 0.01 0.06 0.00 0.00 0.00 0.00 0.01 0.00 0.00 0.00 0.00 0.00 0.00 0.00 0.00 0.00 0.00

GFSSW_prec_precacc_105.txt.gz
Total_Precipitation_Accumulation
0.02 0.01 0.01 0.01 0.00 0.00 0.00 0.00 0.00 0.00 0.00 0.00 0.00 0.00 0.00 0.00 0.00 0.00 0.00 0.00 0.00 0.00 0.00 0.00 0.00 0.00 0.00 0.00 0.00 0.00 0.00 0.00 0.01 0.02 0.18 0.25 0.17 0.26 0.11 0.01 0.04 0.21 1.07 0.42 0.22
0.02 0.02 0.02 0.02 0.01 0.00 0.00 0.00 0.00 0.00 0.00 0.00 0.00 0.00 0.00 0.00 0.00 0.00 0.00 0.00 0.00 0.00 0.00 0.00 0.00 0.00 0.00 0.00 0.00 0.00 0.00 0.00 0.03 0.08 0.25 0.33 0.04 0.18 0.07 0.03 0.19 0.63 1.02 0.34 0.21
0.01 0.02 0.01 0.01 0.00 0.00 0.00 0.00 0.00 0.00 0.00 0.00 0.00 0.00 0.00 0.00 0.00 0.00 0.00 0.00 0.00 0.00 0.00 0.00 0.00 0.00 0.00 0.00 0.00 0.00 0.00 0.00 0.00 0.06 0.10 0.29 0.01 0.05 0.03 0.06 0.42 0.46 0.60 0.36 0.34
0.00 0.00 0.01 0.01 0.00 0.00 0.00 0.00 0.00 0.00 0.00 0.00 0.00 0.00 0.00 0.00 0.00 0.00 0.00 0.00 0.00 0.00 0.00 0.00 0.00 0.00 0.00 0.00 0.00 0.00 0.00 0.00 0.00 0.00 0.00 0.00 0.07 0.15 0.09 0.10 0.21 0.45 0.47 0.33 0.41
0.00 0.00 0.00 0.00 0.00 0.00 0.00 0.00 0.00 0.00 0.00 0.00 0.00 0.00 0.00 0.00 0.00 0.00 0.00 0.00 0.00 0.00 0.00 0.00 0.00 0.00 0.00 0.00 0.00 0.00 0.00 0.00 0.00 0.01 0.00 0.01 0.09 0.11 0.01 0.05 0.22 0.39 0.26 0.25 0.29
0.01 0.00 0.00 0.00 0.00 0.00 0.00 0.00 0.00 0.00 0.00 0.00 0.00 0.00 0.00 0.00 0.00 0.00 0.00 0.00 0.00 0.00 0.00 0.00 0.00 0.00 0.00 0.00 0.00 0.00 0.00 0.00 0.00 0.00 0.00 0.00 0.18 0.02 0.11 0.13 0.30 0.94 0.29 0.16 0.19
0.01 0.00 0.00 0.01 0.01 0.01 0.01 0.00 0.00 0.00 0.00 0.00 0.00 0.00 0.00 0.00 0.00 0.00 0.00 0.00 0.00 0.00 0.00 0.00 0.00 0.00 0.00 0.00 0.00 0.00 0.00 0.00 0.04 0.02 0.00 0.02 0.06 0.02 0.16 0.27 0.40 0.34 0.16 0.04 0.04
0.01 0.01 0.00 0.00 0.01 0.00 0.00 0.00 0.00 0.00 0.00 0.00 0.00 0.00 0.00 0.00 0.00 0.00 0.00 0.00 0.00 0.00 0.00 0.00 0.00 0.00 0.00 0.00 0.00 0.00 0.00 0.00 0.05 0.01 0.00 0.01 0.13 0.25 0.31 0.13 0.33 0.47 0.10 0.03 0.00
0.00 0.00 0.00 0.00 0.00 0.01 0.00 0.00 0.00 0.00 0.00 0.00 0.00 0.00 0.00 0.00 0.00 0.00 0.00 0.00 0.00 0.00 0.00 0.00 0.00 0.00 0.00 0.01 0.00 0.00 0.00 0.00 0.00 0.00 0.00 0.00 0.00 0.03 0.15 0.27 0.39 0.29 0.04 0.00 0.00
0.01 0.00 0.00 0.00 0.01 0.01 0.00 0.00 0.00 0.00 0.00 0.00 0.01 0.01 0.00 0.00 0.00 0.00 0.00 0.01 0.01 0.00 0.00 0.00 0.00 0.00 0.00 0.00 0.00 0.00 0.00 0.00 0.00 0.00 0.00 0.00 0.00 0.00 0.02 0.06 0.06 0.05 0.02 0.01 0.00
0.02 0.01 0.00 0.01 0.01 0.02 0.00 0.00 0.00 0.00 0.00 0.00 0.00 0.00 0.00 0.00 0.00 0.00 0.00 0.00 0.00 0.00 0.02 0.00 0.00 0.00 0.00 0.00 0.00 0.00 0.00 0.00 0.00 0.00 0.00 0.00 0.00 0.00 0.00 0.01 0.03 0.04 0.03 0.01 0.00
0.02 0.01 0.01 0.01 0.03 0.02 0.00 0.00 0.00 0.00 0.00 0.00 0.00 0.00 0.00 0.00 0.00 0.00 0.00 0.00 0.00 0.00 0.01 0.00 0.00 0.00 0.00 0.00 0.00 0.00 0.00 0.00 0.00 0.00 0.00 0.00 0.00 0.00 0.00 0.00 0.00 0.01 0.01 0.00 0.00
0.02 0.01 0.01 0.02 0.04 0.01 0.01 0.00 0.00 0.00 0.00 0.00 0.00 0.00 0.00 0.00 0.00 0.00 0.00 0.00 0.00 0.00 0.00 0.01 0.01 0.00 0.00 0.00 0.00 0.00 0.00 0.00 0.00 0.00 0.00 0.00 0.00 0.00 0.00 0.01 0.01 0.01 0.00 0.00 0.00
0.03 0.01 0.02 0.04 0.02 0.00 0.00 0.00 0.00 0.00 0.00 0.00 0.00 0.00 0.00 0.00 0.00 0.00 0.00 0.00 0.00 0.00 0.00 0.02 0.00 0.00 0.00 0.00 0.00 0.01 0.00 0.00 0.00 0.00 0.02 0.00 0.00 0.01 0.00 0.00 0.00 0.01 0.01 0.01 0.00
0.04 0.02 0.03 0.06 0.02 0.00 0.00 0.00 0.00 0.03 0.02 0.00 0.00 0.00 0.00 0.00 0.00 0.00 0.00 0.00 0.00 0.00 0.00 0.01 0.00 0.00 0.00 0.00 0.00 0.01 0.00 0.00 0.00 0.00 0.01 0.02 0.00 0.02 0.00 0.00 0.00 0.00 0.00 0.00 0.00
0.05 0.04 0.07 0.05 0.02 0.00 0.01 0.02 0.11 0.11 0.05 0.00 0.00 0.00 0.00 0.00 0.00 0.00 0.00 0.00 0.00 0.00 0.00 0.01 0.01 0.01 0.01 0.00 0.00 0.00 0.00 0.00 0.00 0.00 0.00 0.01 0.02 0.01 0.01 0.01 0.03 0.02 0.00 0.00 0.00
0.09 0.07 0.11 0.05 0.02 0.01 0.04 0.16 0.24 0.09 0.00 0.00 0.00 0.00 0.00 0.00 0.00 0.00 0.00 0.00 0.00 0.00 0.00 0.00 0.00 0.01 0.01 0.00 0.00 0.00 0.00 0.01 0.11 0.05 0.02 0.05 0.05 0.03 0.00 0.00 0.01 0.01 0.00 0.00 0.01
0.13 0.15 0.12 0.05 0.00 0.07 0.20 0.58 0.38 0.01 0.00 0.00 0.00 0.00 0.02 0.01 0.02 0.02 0.01 0.00 0.00 0.00 0.00 0.00 0.00 0.00 0.00 0.00 0.02 0.01 0.00 0.04 0.09 0.06 0.06 0.06 0.02 0.01 0.01 0.00 0.00 0.00 0.00 0.00 0.00
0.31 0.22 0.20 0.05 0.05 0.19 0.46 0.70 0.19 0.03 0.06 0.03 0.00 0.01 0.02 0.06 0.07 0.05 0.07 0.03 0.00 0.00 0.00 0.00 0.01 0.01 0.00 0.00 0.00 0.01 0.02 0.00 0.00 0.02 0.04 0.01 0.00 0.00 0.00 0.00 0.00 0.00 0.00 0.00 0.00
0.42 0.40 0.13 0.03 0.18 0.49 0.73 0.22 0.01 0.02 0.01 0.00 0.01 0.01 0.01 0.04 0.07 0.10 0.13 0.15 0.07 0.02 0.00 0.02 0.07 0.03 0.00 0.00 0.00 0.00 0.00 0.00 0.00 0.00 0.02 0.00 0.01 0.02 0.02 0.01 0.00 0.00 0.00 0.00 0.00
0.77 0.81 0.14 0.11 0.66 1.05 0.64 0.06 0.00 0.00 0.00 0.00 0.00 0.01 0.01 0.04 0.05 0.16 0.30 0.32 0.13 0.05 0.01 0.00 0.03 0.10 0.00 0.00 0.00 0.00 0.00 0.00 0.00 0.00 0.04 0.08 0.02 0.00 0.01 0.01 0.02 0.01 0.00 0.01 0.02
1.44 1.12 0.39 0.40 0.82 0.53 0.18 0.02 0.01 0.00 0.00 0.00 0.00 0.01 0.03 0.03 0.04 0.10 0.22 0.18 0.12 0.11 0.05 0.00 0.00 0.02 0.02 0.01 0.01 0.00 0.00 0.01 0.02 0.02 0.01 0.03 0.01 0.00 0.00 0.00 0.02 0.04 0.01 0.00 0.00
1.80 0.97 1.05 0.91 0.88 0.28 0.09 0.03 0.01 0.00 0.00 0.00 0.00 0.01 0.00 0.01 0.04 0.03 0.10 0.02 0.01 0.07 0.13 0.05 0.05 0.03 0.06 0.11 0.05 0.01 0.00 0.00 0.00 0.00 0.01 0.05 0.02 0.04 0.03 0.00 0.01 0.05 0.10 0.01 0.00
2.09 1.39 1.71 1.37 0.42 0.27 0.30 0.21 0.11 0.01 0.01 0.03 0.01 0.01 0.02 0.02 0.04 0.07 0.05 0.06 0.00 0.00 0.04 0.09 0.11 0.04 0.05 0.04 0.04 0.01 0.02 0.02 0.01 0.00 0.00 0.00 0.01 0.06 0.05 0.03 0.02 0.01 0.07 0.07 0.00
2.72 0.86 0.59 0.88 0.63 0.22 0.18 0.20 0.15 0.13 0.06 0.03 0.02 0.03 0.03 0.04 0.03 0.03 0.10 0.09 0.07 0.02 0.01 0.13 0.17 0.03 0.00 0.00 0.00 0.01 0.01 0.01 0.04 0.02 0.01 0.00 0.00 0.01 0.03 0.04 0.01 0.00 0.00 0.07 0.05
2.38 0.43 0.26 0.17 0.16 0.28 0.30 0.18 0.15 0.11 0.13 0.11 0.02 0.00 0.02 0.05 0.04 0.04 0.08 0.27 0.21 0.22 0.17 0.16 0.20 0.07 0.01 0.00 0.00 0.02 0.01 0.01 0.01 0.02 0.03 0.02 0.00 0.00 0.02 0.01 0.02 0.00 0.00 0.01 0.13
1.75 0.27 0.47 0.30 0.21 0.34 0.26 0.14 0.14 0.10 0.07 0.05 0.05 0.05 0.05 0.06 0.07 0.11 0.09 0.14 0.27 0.43 0.43 0.28 0.21 0.14 0.05 0.00 0.01 0.07 0.01 0.00 0.01 0.01 0.02 0.04 0.00 0.00 0.00 0.00 0.00 0.00 0.00 0.01 0.03

GFSSW_prec_precacc_111.txt.gz
Total_Precipitation_Accumulation
0.02 0.01 0.01 0.01 0.00 0.00 0.00 0.00 0.00 0.00 0.00 0.00 0.00 0.00 0.00 0.00 0.00 0.00 0.00 0.00 0.00 0.00 0.00 0.00 0.00 0.00 0.00 0.00 0.00 0.00 0.00 0.00 0.01 0.02 0.18 0.25 0.17 0.26 0.11 0.01 0.04 0.21 1.07 0.42 0.22
0.02 0.02 0.02 0.02 0.01 0.00 0.00 0.00 0.00 0.00 0.00 0.00 0.00 0.00 0.00 0.00 0.00 0.00 0.00 0.00 0.00 0.00 0.00 0.00 0.00 0.00 0.00 0.00 0.00 0.00 0.00 0.00 0.03 0.08 0.25 0.33 0.04 0.18 0.07 0.03 0.19 0.63 1.02 0.34 0.21
0.01 0.02 0.01 0.01 0.00 0.00 0.00 0.00 0.00 0.00 0.00 0.00 0.00 0.00 0.00 0.00 0.00 0.00 0.00 0.00 0.00 0.00 0.00 0.00 0.00 0.00 0.00 0.00 0.00 0.00 0.00 0.00 0.00 0.06 0.10 0.29 0.01 0.05 0.03 0.06 0.42 0.46 0.60 0.36 0.34
0.00 0.00 0.01 0.01 0.00 0.00 0.00 0.00 0.00 0.00 0.00 0.00 0.00 0.00 0.00 0.00 0.00 0.00 0.00 0.00 0.00 0.00 0.00 0.00 0.00 0.00 0.00 0.00 0.00 0.00 0.00 0.00 0.00 0.00 0.00 0.00 0.07 0.15 0.09 0.10 0.21 0.45 0.47 0.33 0.41
0.00 0.00 0.00 0.00 0.00 0.00 0.00 0.00 0.00 0.00 0.00 0.00 0.00 0.00 0.00 0.00 0.00 0.00 0.00 0.00 0.00 0.00 0.00 0.00 0.00 0.00 0.00 0.00 0.00 0.00 0.00 0.00 0.00 0.01 0.00 0.01 0.09 0.11 0.01 0.05 0.22 0.39 0.26 0.25 0.29
0.01 0.00 0.00 0.00 0.00 0.00 0.00 0.00 0.00 0.00 0.00 0.00 0.00 0.00 0.00 0.00 0.00 0.00 0.00 0.00 0.00 0.00 0.00 0.00 0.00 0.00 0.00 0.00 0.00 0.00 0.00 0.00 0.00 0.00 0.00 0.00 0.18 0.02 0.11 0.13 0.30 0.94 0.29 0.16 0.19
0.01 0.00 0.00 0.01 0.01 0.01 0.01 0.00 0.00 0.00 0.00 0.00 0.00 0.00 0.00 0.00 0.00 0.00 0.00 0.00 0.00 0.00 0.00 0.00 0.00 0.00 0.00 0.00 0.00 0.00 0.00 0.00 0.04 0.02 0.00 0.02 0.06 0.02 0.16 0.27 0.40 0.34 0.16 0.04 0.04
0.01 0.01 0.00 0.00 0.01 0.00 0.00 0.00 0.00 0.00 0.00 0.00 0.00 0.00 0.00 0.00 0.00 0.00 0.00 0.00 0.00 0.00 0.00 0.00 0.00 0.00 0.00 0.00 0.00 0.00 0.00 0.00 0.05 0.01 0.00 0.01 0.13 0.25 0.31 0.13 0.33 0.47 0.10 0.03 0.00
0.01 0.00 0.00 0.00 0.00 0.01 0.00 0.00 0.00 0.00 0.00 0.00 0.00 0.00 0.00 0.00 0.00 0.00 0.00 0.00 0.00 0.00 0.00 0.00 0.00 0.00 0.00 0.01 0.00 0.00 0.00 0.00 0.00 0.00 0.00 0.00 0.00 0.03 0.15 0.27 0.39 0.29 0.04 0.00 0.00
0.01 0.00 0.00 0.00 0.01 0.01 0.00 0.00 0.00 0.00 0.00 0.00 0.01 0.01 0.00 0.00 0.00 0.00 0.00 0.01 0.01 0.00 0.00 0.00 0.00 0.00 0.00 0.00 0.00 0.00 0.00 0.00 0.00 0.00 0.00 0.00 0.00 0.00 0.02 0.06 0.06 0.05 0.02 0.01 0.00
0.02 0.01 0.00 0.01 0.01 0.02 0.00 0.00 0.00 0.00 0.00 0.00 0.00 0.00 0.00 0.00 0.00 0.00 0.00 0.00 0.00 0.00 0.02 0.00 0.00 0.00 0.00 0.00 0.00 0.00 0.00 0.00 0.00 0.00 0.00 0.00 0.00 0.00 0.00 0.01 0.03 0.04 0.03 0.01 0.00
0.02 0.01 0.01 0.01 0.03 0.02 0.00 0.00 0.00 0.00 0.00 0.00 0.00 0.00 0.00 0.00 0.00 0.00 0.00 0.00 0.00 0.00 0.01 0.00 0.00 0.00 0.00 0.00 0.00 0.00 0.00 0.00 0.00 0.00 0.00 0.00 0.00 0.00 0.00 0.00 0.00 0.01 0.01 0.00 0.00
0.02 0.01 0.01 0.02 0.04 0.01 0.01 0.00 0.00 0.00 0.01 0.00 0.00 0.00 0.00 0.00 0.00 0.00 0.00 0.00 0.00 0.00 0.00 0.01 0.01 0.00 0.00 0.00 0.00 0.00 0.00 0.00 0.00 0.00 0.00 0.00 0.00 0.00 0.00 0.01 0.01 0.01 0.00 0.00 0.00
0.03 0.01 0.02 0.04 0.02 0.00 0.00 0.00 0.00 0.00 0.01 0.00 0.00 0.00 0.00 0.00 0.00 0.00 0.00 0.00 0.00 0.00 0.00 0.02 0.00 0.00 0.00 0.00 0.00 0.01 0.00 0.00 0.00 0.00 0.02 0.00 0.00 0.01 0.00 0.00 0.00 0.01 0.01 0.01 0.00
0.04 0.02 0.03 0.06 0.02 0.00 0.00 0.00 0.00 0.03 0.02 0.00 0.00 0.00 0.00 0.00 0.00 0.00 0.00 0.00 0.00 0.00 0.00 0.01 0.00 0.00 0.00 0.00 0.00 0.01 0.00 0.00 0.00 0.00 0.01 0.02 0.00 0.02 0.00 0.00 0.00 0.00 0.00 0.00 0.00
0.05 0.04 0.07 0.05 0.02 0.00 0.01 0.02 0.11 0.12 0.05 0.00 0.00 0.00 0.00 0.00 0.00 0.00 0.00 0.00 0.00 0.00 0.00 0.01 0.01 0.01 0.01 0.00 0.00 0.00 0.00 0.00 0.00 0.00 0.00 0.01 0.02 0.01 0.01 0.01 0.03 0.02 0.00 0.00 0.00
0.09 0.07 0.11 0.05 0.02 0.01 0.04 0.16 0.24 0.09 0.00 0.00 0.00 0.00 0.00 0.00 0.00 0.00 0.00 0.00 0.00 0.00 0.00 0.00 0.00 0.01 0.01 0.00 0.00 0.00 0.00 0.01 0.11 0.05 0.02 0.05 0.05 0.03 0.00 0.00 0.01 0.01 0.00 0.00 0.01
0.13 0.15 0.12 0.05 0.00 0.07 0.20 0.58 0.38 0.01 0.00 0.01 0.00 0.00 0.04 0.03 0.03 0.03 0.06 0.04 0.05 0.01 0.00 0.00 0.00 0.00 0.00 0.00 0.02 0.01 0.00 0.04 0.09 0.06 0.06 0.06 0.02 0.01 0.01 0.00 0.00 0.00 0.00 0.00 0.00
0.31 0.22 0.20 0.05 0.05 0.19 0.47 0.70 0.19 0.03 0.10 0.10 0.01 0.02 0.05 0.08 0.09 0.09 0.17 0.23 0.37 0.21 0.05 0.01 0.01 0.01 0.00 0.00 0.00 0.01 0.02 0.00 0.00 0.02 0.04 0.01 0.00 0.00 0.00 0.00 0.00 0.00 0.00 0.00 0.00
0.42 0.40 0.13 0.03 0.18 0.49 0.74 0.22 0.01 0.02 0.01 0.01 0.03 0.03 0.02 0.05 0.11 0.24 0.44 0.44 0.25 0.28 0.17 0.05 0.08 0.03 0.00 0.00 0.00 0.00 0.00 0.00 0.00 0.00 0.02 0.00 0.01 0.02 0.02 0.01 0.01 0.00 0.00 0.00 0.00
0.77 0.81 0.14 0.11 0.66 1.05 0.64 0.06 0.00 0.00 0.00 0.00 0.00 0.02 0.01 0.07 0.11 0.32 0.61 0.57 0.16 0.12 0.20 0.11 0.03 0.10 0.05 0.02 0.00 0.00 0.00 0.00 0.00 0.00 0.04 0.08 0.02 0.00 0.01 0.01 0.02 0.01 0.00 0.01 0.02
1.44 1.12 0.39 0.40 0.82 0.53 0.18 0.03 0.01 0.00 0.00 0.00 0.00 0.02 0.07 0.09 0.13 0.25 0.50 0.38 0.15 0.17 0.15 0.11 0.04 0.03 0.03 0.09 0.07 0.01 0.00 0.01 0.02 0.02 0.01 0.03 0.01 0.00 0.00 0.00 0.02 0.04 0.01 0.00 0.00
1.80 0.97 1.05 0.91 0.89 0.28 0.09 0.04 0.01 0.00 0.00 0.01 0.01 0.04 0.05 0.04 0.08 0.06 0.15 0.04 0.02 0.13 0.31 0.31 0.20 0.09 0.12 0.20 0.11 0.06 0.02 0.00 0.00 0.00 0.01 0.05 0.02 0.04 0.03 0.00 0.01 0.05 0.10 0.01 0.00
2.09 1.39 1.71 1.41 0.45 0.28 0.30 0.21 0.11 0.01 0.01 0.04 0.02 0.05 0.05 0.03 0.05 0.07 0.06 0.07 0.01 0.02 0.09 0.36 0.42 0.17 0.07 0.06 0.07 0.03 0.03 0.03 0.01 0.00 0.00 0.00 0.01 0.08 0.08 0.05 0.02 0.01 0.08 0.09 0.01
2.72 0.86 0.59 0.88 0.64 0.22 0.18 0.20 0.15 0.13 0.06 0.05 0.02 0.05 0.11 0.06 0.03 0.03 0.10 0.10 0.08 0.03 0.01 0.18 0.40 0.28 0.08 0.01 0.01 0.05 0.02 0.02 0.05 0.02 0.01 0.00 0.00 0.02 0.07 0.06 0.01 0.00 0.00 0.07 0.07
2.38 0.43 0.26 0.17 0.16 0.28 0.30 0.18 0.15 0.11 0.13 0.12 0.03 0.00 0.02 0.05 0.06 0.04 0.08 0.27 0.21 0.22 0.17 0.16 0.21 0.10 0.08 0.02 0.01 0.03 0.08 0.05 0.01 0.03 0.03 0.02 0.00 0.00 0.03 0.04 0.04 0.03 0.01 0.01 0.14
1.75 0.28 0.47 0.30 0.21 0.34 0.26 0.14 0.14 0.10 0.07 0.05 0.05 0.05 0.05 0.06 0.07 0.11 0.09 0.14 0.27 0.43 0.43 0.28 0.22 0.14 0.07 0.02 0.03 0.08 0.02 0.04 0.03 0.01 0.02 0.05 0.01 0.03 0.06 0.04 0.04 0.03 0.01 0.01 0.04